User: anonymous   Login
Location: Sunny Point
(33.0946°N, 85.0574°W)
Time: 10:08:26
(UTC+00:00)
Language:

DX 1 - Orbit

View from above orbital plane
View from above orbital plane
View from above satellite
View from above satellite

Ground track
Ground track

The orbit data is extracted from the following two-line orbital elements,

1 40071U 14037C   24205.87756118  .00003870  00000-0  45915-3 0  9998
2 40071  98.3311 120.0320 0008140  15.4642 344.6818 14.85105559543001
Epoch (UTC): 23 July 2024 21:03:41
Eccentricity: 0.0008140
inclination: 98.3311°
perigee height: 607 km
apogee height: 619 km
right ascension of ascending node: 120.0320°
argument of perigee: 15.4642°
revolutions per day: 14.85105559
mean anomaly at epoch: 344.6818°
orbit number at epoch: 54300

The dashed part of the orbit path shows where the satellite is in the earth's shadow,  

DLR